Flag for Canada Weather past 2 weeks in Quesnel, British Columbia, Canada

Now
57 °F

Scattered clouds.


Feels Like: 57 °F
Forecast: 52 / 85 °F
Wind: 3 mph from North

Location: Quesnel Airport

Current Time: Aug 1, 2014 at 9:49:07 AM

Latest Report: Aug 1, 2014 at 9:00 AM


Visibility: 9 mi

Pressure: 30.20 "Hg

Humidity: 82%

Dew point: 52 °F

Location of QuesnelLocation

Historic Weather in Quesnel — Graph

°F

Quesnel temperature yesterday

Maximum temperature yesterday: 82 °F (at 4:00 PM)
Minimum temperature yesterday: 52 °F (at 6:00 AM)
Average temperature yesterday: 68 °F

Past Weeks' High & Low Weather Summary

 TemperatureHumidityPressure
High86 °F (Jul 29, 5:00 PM)100% (Jul 18, 8:53 PM)30.26 "Hg (Jul 18, 8:53 PM)
Low46 °F (Jul 25, 5:00 AM)16% (Jul 17, 4:00 PM)29.70 "Hg (Jul 19, 1:00 PM)
Average63 °F72%29.99 "Hg
* Reported Jul 17 8:00 AM — Aug 1 8:00 AM, Quesnel, Weather by CustomWeather, © 2014

Note: Actual official high and low records may vary slightly from our data, if they occured in-between our weather recording intervals... More about our weather records

Advertising

Quesnel weather history for previous 24 hours

 ConditionsComfort  
Time TempWeatherWind HumidityBarometerVisibility
8:00 AM
Aug 1
54 °FPassing clouds.No wind94%30.19 "Hg9 mi
7:00 AM48 °FSunny.No wind100%30.19 "Hg9 mi
6:00 AM46 °FClear.2 mph100%30.18 "Hg9 mi
5:00 AM50 °FClear.2 mph94%30.17 "Hg9 mi
4:00 AM52 °FClear.2 mph88%30.16 "Hg9 mi
3:00 AM54 °FClear.2 mph88%30.15 "Hg9 mi
2:00 AM54 °FClear.No wind94%30.15 "Hg9 mi
1:00 AM55 °FClear.3 mph88%30.14 "Hg9 mi
12:00 AM55 °FClear.3 mph88%30.14 "Hg9 mi
11:00 PM
Jul 31
57 °FClear.No wind82%30.13 "Hg9 mi
10:00 PM61 °FSunny.No wind77%30.11 "Hg9 mi
9:00 PM66 °FSunny.No wind68%30.09 "Hg9 mi
8:00 PM77 °FSunny.2 mph39%30.08 "Hg9 mi
7:00 PM81 °FSunny.6 mph37%30.08 "Hg9 mi
6:00 PM82 °FSunny.5 mph30%30.08 "Hg9 mi
5:00 PM82 °FSunny.No wind26%30.09 "Hg9 mi
4:00 PM82 °FSunny.5 mph28%30.10 "Hg9 mi
3:00 PM81 °FSunny.3 mph32%30.11 "Hg9 mi
2:00 PM79 °FSunny.6 mph34%30.13 "Hg9 mi
1:00 PM77 °FSunny.6 mph34%30.14 "Hg9 mi
12:00 PM75 °FSunny.7 mph36%30.15 "Hg9 mi
11:00 AM72 °FSunny.8 mph41%30.16 "Hg9 mi
10:00 AM70 °FSunny.9 mph43%30.17 "Hg9 mi
9:00 AM66 °FSunny.8 mph49%30.17 "Hg9 mi
Weather by CustomWeather, © 2014

See weather overviewHow to use our weather pages